Home   Weather   Fagernes   Past weeks

Flag for Norway Past Weather in Fagernes, Norway — Yesterday and Last 2 Weeks

Now
44 °F

Passing clouds.


Feels Like: 44 °F
Forecast: 16 / 45 °F
Wind: 2 mph from Southwest

Location: Fagernes

Current Time: Apr 29, 2017 at 5:57:55 pm

Latest Report: Apr 29, 2017 at 5:00 pm


Visibility: 47 mi

Pressure: 30.20 "Hg

Humidity: 33%

Dew Point: 17 °F

Location of FagernesLocation

Past Weather in Fagernes — Graph

°F

Fagernes Temperature Yesterday

Maximum temperature yesterday: 39 °F (at 7:00 pm)
Minimum temperature yesterday: 28 °F (at 6:00 am)
Average temperature yesterday: 34 °F

High & Low Weather Summary for the Past Weeks

 TemperatureHumidityPressure
High53 °F (Apr 20, 4:00 pm)95% (Apr 16, 11:00 pm)30.61 "Hg (Apr 16, 11:00 pm)
Low19 °F (Apr 18, 4:00 am)23% (Apr 27, 4:00 pm)29.44 "Hg (Apr 24, 2:00 pm)
Average35 °F63%29.95 "Hg
* Reported Apr 14 4:00 pm — Apr 29 4:00 pm, Fagernes, Weather by CustomWeather, © 2017

Note: Actual official high and low records may vary slightly from our data, if they occured in-between our weather recording intervals... More about our weather records

Advertising

Fagernes Weather History for the Previous 24 Hours

Scroll right to see more
 ConditionsComfort  
Time TempWeatherWind HumidityBarometerVisibility
4:00 pm
Sat, Apr 29
43 °FQuite cool.2 mph43%30.22 "HgN/A
3:00 pm43 °FQuite cool.1 mph40%30.24 "HgN/A
2:00 pm43 °FQuite cool.1 mph41%30.24 "HgN/A
1:00 pm41 °FQuite cool.1 mph49%30.25 "HgN/A
12:00 pm37 °FChilly.2 mph65%30.28 "HgN/A
11:00 am36 °FPartly sunny.2 mph68%30.29 "Hg19 mi
10:00 am35 °FChilly.No wind74%30.29 "HgN/A
9:00 am33 °FChilly.No wind78%30.29 "HgN/A
8:00 am32 °FLight snow. Low clouds.No wind85%30.29 "Hg3 mi
7:00 am32 °FChilly.No wind90%30.29 "HgN/A
6:00 am32 °FChilly.No wind90%30.27 "HgN/A
5:00 am32 °FLight snow. Low clouds.No wind90%30.26 "Hg2 mi
4:00 am32 °FChilly.No wind86%30.25 "HgN/A
3:00 am33 °FChilly.1 mph84%30.23 "HgN/A
2:00 am33 °FLight snow. Overcast.No wind92%30.22 "Hg1 mi
1:00 am33 °FChilly.No wind89%30.21 "HgN/A
12:00 am33 °FChilly.No wind89%30.19 "HgN/A
11:00 pm
Fri, Apr 28
35 °FChilly.No wind82%30.18 "HgN/A
10:00 pm35 °FChilly.1 mph86%30.17 "HgN/A
9:00 pm35 °FChilly.No wind83%30.16 "HgN/A
8:00 pm36 °FChilly.No wind75%30.14 "HgN/A
7:00 pm39 °FChilly.No wind58%30.12 "HgN/A
6:00 pm38 °FChilly.No wind58%30.11 "HgN/A
5:00 pm38 °FOvercast.1 mph62%30.11 "Hg34 mi
Weather by CustomWeather, © 2017

See weather overviewHow to use our weather pages